OpenBCM V1.08-5-g2f4a (Linux)

Packet Radio Mailbox

IZ3LSV

[San Dona' di P. JN]

 Login: GUEST





  
LU9DCE > KEPS     14.03.18 17:13l 259 Lines 12891 Bytes #999 (0) @ WW
BID : 34277_LU9DCE
Read: GUEST
Subj: SAT TLE OF 14
Path: IZ3LSV<IR2UBX<EA2RCF<LU9DCE
Sent: 180314/1601Z @:LU9DCE.TOR.BA.ARG.SOAM #:34277 [TORTUGUITAS] FBB7.07
From: LU9DCE@LU9DCE.TOR.BA.ARG.SOAM
To  : KEPS@WW


            __    _  _  ___  ____   ___  ____    ____  ____  ____
           (  )  / )( \/ _ \(    \ / __)(  __)  (  _ \(  _ \/ ___)
           / (_/\) \/ (\__  )) D (( (__  ) _)    ) _ ( ) _ (\___ \
           \____/\____/(___/(____/ \___)(____)  (____/(____/(____/
               ESTACION DE PACKET RADIO - BUENOS AIRES (GF05OM)
                   BOLETINES INFORMATIVOS PROGRAMADOS (BIP)
                    LU9DCE@GMX.COM - RF 147070 @ 1200 BAUD
                           telnet lu9dce.dynu.com
             BBS port 6300 / NODE port 3694 / DXCLUSTER port 9000

+------------------------------------------------------------------------------+
OSCAR 7
1  7530U 74089B   18072.88903794 -.00000033 +00000-0 +72607-4 0  9992
2  7530 101.6753 041.6834 0012152 158.1290 258.0557 12.53631630982655
OSCAR 11 (UoSAT 2)
1 14781U 84021B   18072.93177419 +.00000074 +00000-0 +15317-4 0  9997
2 14781 097.6620 113.1475 0009438 043.5652 316.6307 14.82986349809326
OSCAR 19 (LUSAT)
1 20442U 90005G   18072.89626659 -.00000009 +00000-0 +12807-4 0  9997
2 20442 098.6025 012.0159 0012892 073.0394 287.2202 14.32889083470189
KITSAT B
1 22825U 93061C   18072.15417877 +.00000008 +00000-0 +20889-4 0  9995
2 22825 098.8520 046.5839 0007324 266.8066 093.2278 14.30023950275572
POSAT 1
1 22826U 93061D   18072.89274049 +.00000002 +00000-0 +18588-4 0  9996
2 22826 098.8463 047.3845 0007881 252.8881 107.1438 14.30354980276139
RADIO ROSTO
1 23439U 94085A   18072.55335517 -.00000042 +00000-0 +11308-4 0  9993
2 23439 064.8156 143.5031 0160535 199.2376 266.9225 11.27566589955783
JAS 2
1 24278U 96046B   18072.84094940 -.00000018 +00000-0 +18561-4 0  9999
2 24278 098.5265 284.6844 0350371 358.4727 001.5316 13.53081867065099
TECHSAT 1B
1 25397U 98043D   18072.79931979 -.00000023 +00000-0 +87629-5 0  9995
2 25397 098.6412 014.8616 0000661 359.6229 000.4949 14.23641289021934
ISS (ZARYA)
1 25544U 98067A   18072.90290509 +.00001913 +00000-0 +36003-4 0  9992
2 25544 051.6420 133.7243 0001869 182.2459 161.2546 15.54225481103699
PCSAT
1 26931U 01043C   18072.56950098 -.00000025 +00000-0 +22112-4 0  9999
2 26931 067.0502 116.1334 0006425 282.9291 077.1093 14.30496743858809
SAUDISAT 1C
1 27607U 02058C   18072.91374630 +.00000024 +00000-0 +24137-4 0  9995
2 27607 064.5567 021.2454 0054080 350.7328 009.2771 14.75427712818777
CUTE-1
1 27844U 03031E   18072.90481953 +.00000072 +00000-0 +52205-4 0  9996
2 27844 098.6893 082.9565 0008691 289.5319 070.4920 14.22099296762614
CUBESAT XI 4
1 27848U 03031J   18072.69692837 +.00000047 +00000-0 +41434-4 0  9995
2 27848 098.6981 083.1168 0008676 301.5783 058.4547 14.21705052762468
MOZHAYETS 4
1 27939U 03042A   18072.94766998 +.00000126 +00000-0 +31098-4 0  9999
2 27939 097.9737 214.6290 0014342 091.1997 022.5278 14.66664249772716
CUBESAT XI 5
1 28895U 05043F   18072.90202737 +.00000138 +00000-0 +35269-4 0  9993
2 28895 097.8940 228.2928 0016995 015.5174 344.6546 14.63517700659700
CUTE-1.7+APD II
1 32785U 08021C   18072.83418091 +.00000258 +00000-0 +33668-4 0  9993
2 32785 097.5521 089.5433 0013023 001.7792 358.3470 14.88075276534924
DELFI C3
1 32789U 08021G   18072.76352339 +.00001766 +00000-0 +12589-3 0  9994
2 32789 097.5243 129.9482 0011036 261.3262 098.6715 15.05812535537421
SEEDS
1 32791U 08021J   18072.80919413 +.00000436 +00000-0 +50075-4 0  9990
2 32791 097.5432 094.6541 0012807 342.6403 017.4376 14.90486276535225
YUBELEINY
1 32953U 08025A   18072.90678159 +.00000039 +00000-0 +20642-3 0  9999
2 32953 082.4994 071.9314 0020240 059.6049 300.7028 12.43082291444932
PRISM (HITOMI)
1 33493U 09002B   18072.93336385 +.00000831 +00000-0 +79499-4 0  9995
2 33493 098.1393 331.3258 0013648 272.1923 087.7741 14.96105738496108
KKS-1 (KISEKI)
1 33499U 09002H   18072.88823994 +.00000141 +00000-0 +28848-4 0  9998
2 33499 098.3514 251.5766 0008224 231.0774 128.9701 14.75302362490703
SWISSCUBE
1 35932U 09051B   18072.92330537 +.00000138 +00000-0 +42309-4 0  9991
2 35932 098.5297 221.8721 0008583 137.4886 222.6977 14.56129620449534
BEESAT
1 35933U 09051C   18072.88870078 +.00000123 +00000-0 +38720-4 0  9992
2 35933 098.5337 223.3226 0006575 147.5194 212.6409 14.56237023449592
ITUPSAT 1
1 35935U 09051E   18072.88973375 +.00000102 +00000-0 +34648-4 0  9990
2 35935 098.5449 223.5779 0008944 144.9693 215.2093 14.55417560449436
XIWANG-1 (HOPE-1)
1 36122U 09072B   18072.93024219 -.00000005 +00000-0 +97367-4 0  9992
2 36122 100.0822 091.9978 0007177 337.4360 022.6437 13.16343698396017
TISAT 1
1 36799U 10035E   18072.87197146 +.00000392 +00000-0 +45977-4 0  9994
2 36799 098.0904 206.6547 0013028 156.2687 203.9133 14.90718027415757
JUGNU
1 37839U 11058B   18071.86620299 +.00000333 +00000-0 +35661-4 0  9998
2 37839 019.9610 261.3224 0018912 265.1639 226.3607 14.12612062331627
SRMSAT
1 37841U 11058D   18072.94776862 +.00000323 +00000-0 +32426-4 0  9994
2 37841 019.9724 302.0032 0011912 164.2783 317.3565 14.10600523331326
M-CUBED/EXP-1 PRIME
1 37855U 11061F   18072.96183723 +.00002319 +00000-0 +12608-3 0  9999
2 37855 101.7255 086.7604 0177402 004.0975 356.1640 15.04152317346869
HORYU 2
1 38340U 12025D   18072.93334775 +.00000207 +00000-0 +38462-4 0  9993
2 38340 098.3730 091.3525 0012284 148.9275 211.2662 14.75510803302658
STRAND 1
1 39090U 13009E   18072.86497208 +.00000047 +00000-0 +31987-4 0  9999
2 39090 098.5311 280.4368 0008497 214.8677 145.1953 14.35014286264132
SOMP
1 39134U 13015E   18072.27758934  .00001558  00000-0  83572-4 0  9991
2 39134  64.8631  77.0949 0021813 223.2700 136.6715 15.18883422270333
BEESAT 3
1 39135U 13015F   18072.80321228 +.00001219 +00000-0 +71965-4 0  9990
2 39135 064.8677 087.5281 0027175 246.8020 113.0243 15.16450080270188
BEESAT 2
1 39136U 13015G   18072.27790118 +.00000949 +00000-0 +59104-4 0  9990
2 39136 064.8683 091.7501 0028035 246.3137 113.5046 15.15927788269668
CUBEBUG 1
1 39153U 13018D   18072.80204401 +.00000220 +00000-0 +35767-4 0  9997
2 39153 097.9772 168.6239 0015687 253.6150 106.3338 14.80352343263477
ZACUBE
1 39417U 13066B   18072.63952805 +.00000248 +00000-0 +37504-4 0  9993
2 39417 097.5982 106.3284 0060662 107.8125 252.9718 14.80888303232659
TRITON 1
1 39427U 13066M   18072.91989913 +.00000153 +00000-0 +32582-4 0  9991
2 39427 097.6390 075.1776 0113536 203.9315 155.6590 14.67620699230417
GOMX 1
1 39430U 13066Q   18072.91074497 +.00000184 +00000-0 +42901-4 0  9997
2 39430 097.6888 056.6982 0150171 271.3734 087.0269 14.59037016229073
HUMSAT D
1 39433U 13066T   18072.86242121 +.00000410 +00000-0 +45809-4 0  9997
2 39433 097.6162 132.5223 0031898 042.4214 317.9463 14.91771659233033
50 SAT
1 39436U 13066W   18072.88074249 +.00098297 +00000-0 +10464-2 0  9993
2 39436 097.7116 201.5813 0005106 209.3027 150.7945 15.63668454238364
CUBEBUG 2
1 39440U 13066AA  18072.93818323 +.00000223 +00000-0 +37985-4 0  9994
2 39440 097.6078 093.8048 0081520 144.0410 216.6325 14.75623632230673
FUNCUBE 1
1 39444U 13066AE  18072.61774710 +.00000310 +00000-0 +44566-4 0  9994
2 39444 097.5991 107.7113 0059837 103.7657 257.0226 14.81655262230916
UWE-3
1 39446U 13066AG  18072.78559791 +.00000224 +00000-0 +36354-4 0  9994
2 39446 097.6016 099.6973 0071574 126.2474 234.5380 14.78157089230437
SPROUT
1 39770U 14029E   18072.82533205 +.00000791 +00000-0 +95030-4 0  9996
2 39770 097.8714 174.7057 0009714 153.3706 206.7990 14.86709926206194
UNISAT 6
1 40012U 14033C   18072.89258335 +.00000197 +00000-0 +36882-4 0  9997
2 40012 097.8228 312.6187 0059236 145.0869 215.4247 14.73774899200669
DUCHIFAT 1
1 40021U 14033M   18072.71524323 +.00000546 +00000-0 +62114-4 0  9996
2 40021 097.9174 351.2628 0013987 128.9192 231.3275 14.90220560202739
QB50P1
1 40025U 14033R   18072.70289817 +.00000328 +00000-0 +41204-4 0  9990
2 40025 097.9082 348.2873 0013437 134.4833 225.7484 14.88652369202072
CHUBUSAT 1
1 40300U 14070C   18072.79916282 +.00000792 +00000-0 +38229-4 0  9997
2 40300 097.3699 152.5125 0018627 234.8860 238.8591 15.21421519185773
NUDT-PHONESAT
1 40900U 15049B   18072.91992938 +.00002383 +00000-0 +11074-3 0  9992
2 40900 097.4432 082.2897 0013766 010.5967 349.5556 15.20892288137431
ZDPS 2A
1 40901U 15049C   18072.96138185 +.00001196 +00000-0 +63993-4 0  9993
2 40901 097.4601 080.8017 0014180 015.7967 344.3706 15.16903775137222
ZDPS 2B
1 40902U 15049D   18072.92235363 +.00001042 +00000-0 +56498-4 0  9998
2 40902 097.4493 078.9445 0014154 013.1003 347.0595 15.16706548137202
XW-2A
1 40903U 15049E   18072.93935609 +.00002212 +00000-0 +57240-4 0  9996
2 40903 097.3958 106.8096 0014871 020.8183 339.3666 15.40101502139145
KAITUO 1A
1 40904U 15049F   18072.83981661 +.00000350 +00000-0 +22307-4 0  9992
2 40904 097.4591 078.2127 0015566 014.9107 106.0202 15.14910411137061
OBJECT G
1 40905U 15049G   18072.90641524 +.00000504 +00000-0 +31382-4 0  9996
2 40905 097.4582 076.5121 0015972 006.6830 353.4611 15.13881825137000
XW-2C
1 40906U 15049H   18072.95232289 +.00000804 +00000-0 +46436-4 0  9995
2 40906 097.4601 078.1986 0015224 006.6170 353.5260 15.15052404137070
XW-2D
1 40907U 15049J   18072.91395700 +.00000857 +00000-0 +49084-4 0  9990
2 40907 097.4574 077.8701 0014524 004.9468 355.1905 15.15193047137077
LILACSAT 2
1 40908U 15049K   18072.93954063 +.00000452 +00000-0 +28895-4 0  9994
2 40908 097.4682 077.3746 0016154 004.8766 355.2620 15.13428428136967
XW-2F
1 40910U 15049M   18072.93545783 +.00001283 +00000-0 +69474-4 0  9993
2 40910 097.4580 079.0347 0015144 000.8905 359.2352 15.16317222137141
XW-2B
1 40911U 15049N   18072.92804929 +.00000830 +00000-0 +47703-4 0  9991
2 40911 097.4611 078.3846 0014447 005.4489 354.6897 15.15140670136979
